SIA211 WSSS-YSSY

Flight info

Callsign SIA211
Flight time 7h 9m
Altitude 33000
Route ANITO B470 PKP L511 BOPLO/N0493F350 T20 BRM G222 GULUM DCT GOMUL G222 GUGAB/N0483F370 G222 VAGPO Y71 VELGI Y105 TARAL Y59 RIVET
Aircraft B77W/H-SDE1E2E3FGHIJ2J3J4J5M1RWXY/LB1D1

Departure

Time 2026-04-21 01:58
Airport Singapore Changi Airport (WSSS)

Arrival

Time 2026-04-21 09:07
Airport Sydney Kingsford Smith International Airport (YSSY)
Time Latitude Longitude Altitude Speed Heading
2026-04-21 00:59 1.35775 103.98517 38 ft 0 kts 70°
2026-04-21 01:34 1.35772 103.98510 38 ft 4 kts 71°
2026-04-21 01:34 1.35764 103.98484 38 ft 4 kts 72°
2026-04-21 01:34 1.35755 103.98459 35 ft 4 kts 61°
2026-04-21 01:34 1.35739 103.98441 34 ft 4 kts 28°
2026-04-21 01:35 1.35716 103.98434 35 ft 4 kts 341°
2026-04-21 01:35 1.35699 103.98449 36 ft 4 kts 293°
2026-04-21 01:35 1.35689 103.98473 34 ft 2 kts 292°
2026-04-21 01:35 1.35689 103.98475 38 ft 0 kts 292°
2026-04-21 01:41 1.35693 103.98466 38 ft 5 kts 292°
2026-04-21 01:41 1.35707 103.98400 38 ft 11 kts 269°
2026-04-21 01:41 1.35715 103.98323 38 ft 11 kts 282°
2026-04-21 01:41 1.35669 103.98268 38 ft 11 kts 204°
2026-04-21 01:42 1.35621 103.98247 38 ft 11 kts 203°
2026-04-21 01:42 1.35523 103.98206 38 ft 12 kts 202°
2026-04-21 01:42 1.35474 103.98186 38 ft 12 kts 203°
2026-04-21 01:42 1.35400 103.98155 38 ft 12 kts 202°
2026-04-21 01:43 1.35326 103.98124 38 ft 12 kts 203°
2026-04-21 01:43 1.35252 103.98093 38 ft 12 kts 202°
2026-04-21 01:43 1.35154 103.98052 38 ft 12 kts 203°
2026-04-21 01:43 1.35080 103.98021 38 ft 12 kts 203°
2026-04-21 01:44 1.35030 103.98000 38 ft 12 kts 203°
2026-04-21 01:44 1.34957 103.97969 38 ft 12 kts 202°
2026-04-21 01:44 1.34857 103.97930 37 ft 12 kts 191°
2026-04-21 01:44 1.34854 103.97930 37 ft 0 kts 183°
2026-04-21 01:45 1.34845 103.97935 37 ft 5 kts 150°
2026-04-21 01:45 1.34815 103.97971 37 ft 7 kts 116°
2026-04-21 01:45 1.34796 103.98017 37 ft 7 kts 112°
2026-04-21 01:45 1.34775 103.98066 37 ft 10 kts 113°
2026-04-21 01:46 1.34730 103.98173 38 ft 20 kts 113°
2026-04-21 01:46 1.34675 103.98302 49 ft 20 kts 112°
2026-04-21 01:46 1.34621 103.98432 50 ft 20 kts 112°
2026-04-21 01:46 1.34559 103.98579 39 ft 27 kts 114°
2026-04-21 01:47 1.34536 103.98628 37 ft 2 kts 114°
2026-04-21 01:47 1.34531 103.98640 37 ft 2 kts 114°
2026-04-21 01:47 1.34526 103.98652 37 ft 2 kts 114°
2026-04-21 01:47 1.34520 103.98664 37 ft 2 kts 114°
2026-04-21 01:48 1.34509 103.98689 37 ft 9 kts 114°
2026-04-21 01:48 1.34468 103.98785 38 ft 18 kts 112°
2026-04-21 01:48 1.34443 103.98846 38 ft 9 kts 112°
2026-04-21 01:48 1.34417 103.98907 38 ft 9 kts 113°
2026-04-21 01:49 1.34361 103.98925 38 ft 10 kts 199°
2026-04-21 01:49 1.34298 103.98900 38 ft 10 kts 202°
2026-04-21 01:49 1.34236 103.98874 38 ft 10 kts 203°
2026-04-21 01:49 1.34173 103.98848 38 ft 10 kts 202°
2026-04-21 01:50 1.34111 103.98822 38 ft 10 kts 202°
2026-04-21 01:50 1.34048 103.98795 38 ft 10 kts 202°
2026-04-21 01:50 1.33986 103.98769 38 ft 10 kts 202°
2026-04-21 01:50 1.33923 103.98743 38 ft 10 kts 202°
2026-04-21 01:51 1.33861 103.98717 38 ft 10 kts 202°
2026-04-21 01:51 1.33798 103.98691 37 ft 10 kts 202°
2026-04-21 01:51 1.33735 103.98664 37 ft 10 kts 203°
2026-04-21 01:51 1.33671 103.98637 37 ft 10 kts 202°
2026-04-21 01:52 1.33607 103.98610 37 ft 10 kts 203°
2026-04-21 01:52 1.33435 103.98538 37 ft 20 kts 202°
2026-04-21 01:52 1.33308 103.98485 37 ft 20 kts 202°
2026-04-21 01:53 1.33243 103.98458 37 ft 6 kts 202°
2026-04-21 01:53 1.33207 103.98443 37 ft 6 kts 202°
2026-04-21 01:53 1.33171 103.98428 38 ft 6 kts 202°
2026-04-21 01:53 1.33135 103.98413 38 ft 6 kts 202°
2026-04-21 01:54 1.33099 103.98398 37 ft 6 kts 203°
2026-04-21 01:54 1.33064 103.98383 37 ft 6 kts 203°
2026-04-21 01:54 1.33018 103.98364 37 ft 8 kts 202°
2026-04-21 01:54 1.32964 103.98370 37 ft 8 kts 146°
2026-04-21 01:55 1.32934 103.98418 37 ft 8 kts 113°
2026-04-21 01:55 1.32912 103.98471 37 ft 8 kts 112°
2026-04-21 01:55 1.32909 103.98499 37 ft 0 kts 72°
2026-04-21 01:55 1.32912 103.98505 37 ft 2 kts 63°
2026-04-21 01:56 1.32929 103.98521 37 ft 4 kts 28°
2026-04-21 01:56 1.32946 103.98528 37 ft 0 kts 22°
2026-04-21 01:57 1.32976 103.98540 38 ft 25 kts 22°
2026-04-21 01:57 1.33384 103.98713 36 ft 101 kts 23°
2026-04-21 01:57 1.34242 103.99075 39 ft 164 kts 22°
2026-04-21 01:58 1.35430 103.99585 157 ft 199 kts 22°
2026-04-21 01:58 1.36572 104.00311 716 ft 199 kts 52°
2026-04-21 01:58 1.37420 104.01397 1286 ft 199 kts 36°
2026-04-21 01:58 1.38779 104.01813 1526 ft 220 kts 352°
2026-04-21 01:59 1.40375 104.01567 1833 ft 246 kts
2026-04-21 01:59 1.42034 104.02143 2629 ft 256 kts 29°
2026-04-21 01:59 1.43638 104.02967 3397 ft 262 kts 24°
2026-04-21 01:59 1.45307 104.03717 4118 ft 265 kts 24°
2026-04-21 02:00 1.46837 104.04760 4801 ft 273 kts 51°
2026-04-21 02:00 1.47737 104.06434 5668 ft 278 kts 76°
2026-04-21 02:00 1.47787 104.08371 6275 ft 283 kts 103°
2026-04-21 02:00 1.47085 104.10196 6819 ft 284 kts 116°
2026-04-21 02:01 1.46224 104.11995 7426 ft 287 kts 116°
2026-04-21 02:01 1.45381 104.13772 8134 ft 287 kts 115°
2026-04-21 02:01 1.44531 104.15580 8769 ft 289 kts 115°
2026-04-21 02:01 1.43672 104.17417 9005 ft 293 kts 115°
2026-04-21 02:02 1.42807 104.19273 8996 ft 294 kts 115°
2026-04-21 02:02 1.41949 104.21126 8994 ft 293 kts 115°
2026-04-21 02:02 1.41094 104.22975 8994 ft 292 kts 115°
2026-04-21 02:02 1.40242 104.24816 8993 ft 292 kts 115°
2026-04-21 02:03 1.39391 104.26657 8990 ft 291 kts 115°
2026-04-21 02:03 1.38542 104.28493 8991 ft 291 kts 115°
2026-04-21 02:03 1.37693 104.30330 8992 ft 291 kts 115°
2026-04-21 02:03 1.36845 104.32163 8986 ft 291 kts 115°
2026-04-21 02:04 1.36283 104.33380 8986 ft 291 kts 115°
2026-04-21 02:04 1.35146 104.35838 8990 ft 291 kts 115°
2026-04-21 02:04 1.34295 104.37677 8994 ft 292 kts 115°
2026-04-21 02:04 1.33364 104.39462 8978 ft 287 kts 129°
2026-04-21 02:05 1.31831 104.40718 8999 ft 289 kts 155°
2026-04-21 02:05 1.29940 104.41334 9007 ft 293 kts 166°
2026-04-21 02:05 1.27943 104.41838 8996 ft 297 kts 166°
2026-04-21 02:05 1.25945 104.42337 8989 ft 296 kts 166°
2026-04-21 02:06 1.23953 104.42838 8980 ft 295 kts 166°
2026-04-21 02:06 1.21968 104.43341 8984 ft 294 kts 166°
2026-04-21 02:06 1.19992 104.43845 8985 ft 292 kts 166°
2026-04-21 02:06 1.18021 104.44350 8989 ft 291 kts 166°
2026-04-21 02:07 1.16060 104.44855 8987 ft 290 kts 166°
2026-04-21 02:07 1.14106 104.45359 8989 ft 290 kts 166°
2026-04-21 02:07 1.12156 104.45862 8993 ft 289 kts 166°
2026-04-21 02:07 1.10209 104.46373 9044 ft 290 kts 165°
2026-04-21 02:08 1.08256 104.46913 9596 ft 293 kts 164°
2026-04-21 02:08 1.06278 104.47465 10167 ft 298 kts 164°
2026-04-21 02:08 1.04229 104.48038 10452 ft 316 kts 164°
2026-04-21 02:08 1.02036 104.48650 10610 ft 338 kts 164°
2026-04-21 02:09 0.99697 104.49302 10767 ft 360 kts 164°
2026-04-21 02:09 0.97217 104.49993 11032 ft 377 kts 164°
2026-04-21 02:09 0.94661 104.50704 11547 ft 386 kts 164°
2026-04-21 02:09 0.92047 104.51430 12219 ft 392 kts 164°
2026-04-21 02:10 0.89404 104.52165 13033 ft 395 kts 164°
2026-04-21 02:10 0.86741 104.52905 13741 ft 400 kts 164°
2026-04-21 02:10 0.84081 104.53644 14341 ft 405 kts 163°
2026-04-21 02:10 0.81322 104.54411 15000 ft 408 kts 164°
2026-04-21 02:11 0.78606 104.55166 15642 ft 412 kts 163°
2026-04-21 02:11 0.75836 104.55936 16268 ft 415 kts 164°
2026-04-21 02:11 0.73039 104.56713 16896 ft 419 kts 164°
2026-04-21 02:11 0.70211 104.57499 17511 ft 423 kts 164°
2026-04-21 02:12 0.67365 104.58290 18099 ft 427 kts 164°
2026-04-21 02:12 0.64486 104.59100 18605 ft 432 kts 163°
2026-04-21 02:12 0.61592 104.59955 19107 ft 435 kts 163°
2026-04-21 02:12 0.58684 104.60830 19607 ft 439 kts 162°
2026-04-21 02:13 0.55746 104.61715 20098 ft 443 kts 163°
2026-04-21 02:13 0.52781 104.62602 20588 ft 447 kts 163°
2026-04-21 02:13 0.50800 104.63193 20906 ft 449 kts 163°
2026-04-21 02:13 0.46773 104.64389 21547 ft 454 kts 163°
2026-04-21 02:14 0.43734 104.65290 22031 ft 457 kts 163°
2026-04-21 02:14 0.40672 104.66196 22494 ft 461 kts 163°
2026-04-21 02:14 0.37584 104.67110 22926 ft 464 kts 163°
2026-04-21 02:14 0.34472 104.68030 23379 ft 468 kts 163°
2026-04-21 02:15 0.31344 104.68957 23782 ft 470 kts 163°
2026-04-21 02:15 0.28204 104.69887 24174 ft 472 kts 163°
2026-04-21 02:15 0.25043 104.70823 24552 ft 475 kts 163°
2026-04-21 02:15 0.21868 104.71764 24893 ft 478 kts 163°
2026-04-21 02:16 0.18715 104.72697 25262 ft 480 kts 163°
2026-04-21 02:16 0.15508 104.73647 25639 ft 482 kts 163°
2026-04-21 02:16 0.12287 104.74602 25974 ft 485 kts 163°
2026-04-21 02:16 0.09044 104.75567 26311 ft 487 kts 163°
2026-04-21 02:17 0.05793 104.76537 26640 ft 490 kts 163°
2026-04-21 02:17 0.02521 104.77513 26979 ft 492 kts 163°
2026-04-21 02:17 -0.00770 104.78494 27299 ft 494 kts 163°
2026-04-21 02:17 -0.04085 104.79482 27603 ft 497 kts 163°
2026-04-21 02:18 -0.07406 104.80472 27912 ft 499 kts 163°
2026-04-21 02:18 -0.10741 104.81466 28208 ft 500 kts 163°
2026-04-21 02:18 -0.14084 104.82462 28518 ft 502 kts 163°
2026-04-21 02:18 -0.17440 104.83463 28783 ft 504 kts 163°
2026-04-21 02:19 -0.20797 104.84463 28987 ft 505 kts 163°
2026-04-21 02:19 -0.24180 104.85471 29173 ft 508 kts 163°
2026-04-21 02:19 -0.27570 104.86504 29408 ft 510 kts 160°
2026-04-21 02:19 -0.30777 104.87996 29625 ft 509 kts 148°
2026-04-21 02:20 -0.33728 104.89957 29887 ft 509 kts 144°
2026-04-21 02:20 -0.36612 104.92007 30193 ft 508 kts 144°
2026-04-21 02:20 -0.39477 104.94068 30516 ft 506 kts 144°
2026-04-21 02:20 -0.42307 104.96083 30806 ft 505 kts 144°
2026-04-21 02:21 -0.45187 104.98096 31102 ft 505 kts 145°
2026-04-21 02:21 -0.48080 105.00085 31377 ft 505 kts 145°
2026-04-21 02:21 -0.50983 105.02059 31668 ft 504 kts 146°
2026-04-21 02:21 -0.53880 105.04016 31971 ft 503 kts 146°
2026-04-21 02:22 -0.56782 105.05972 32264 ft 502 kts 146°
2026-04-21 02:22 -0.59674 105.07921 32579 ft 501 kts 146°
2026-04-21 02:22 -0.62570 105.09875 32850 ft 502 kts 146°
2026-04-21 02:23 -0.68375 105.13798 32922 ft 503 kts 146°
2026-04-21 02:23 -0.74155 105.17707 33021 ft 503 kts 146°
2026-04-21 02:23 -0.77019 105.19645 33305 ft 501 kts 146°
2026-04-21 02:24 -0.79904 105.21597 33653 ft 499 kts 146°
2026-04-21 02:24 -0.82770 105.23536 34000 ft 497 kts 146°
2026-04-21 02:24 -0.85627 105.25469 34293 ft 495 kts 146°
2026-04-21 02:24 -0.88482 105.27400 34544 ft 495 kts 146°
2026-04-21 02:25 -0.91328 105.29326 34777 ft 495 kts 146°
2026-04-21 02:25 -0.97059 105.33202 34888 ft 497 kts 146°
2026-04-21 02:26 -1.02768 105.37065 34913 ft 494 kts 146°
2026-04-21 02:26 -1.08450 105.40910 34921 ft 492 kts 146°
2026-04-21 02:27 -1.14116 105.44743 34925 ft 491 kts 146°
2026-04-21 02:27 -1.19742 105.48550 34926 ft 491 kts 146°
2026-04-21 02:28 -1.25407 105.52384 34926 ft 492 kts 146°
2026-04-21 02:28 -1.31083 105.56225 34924 ft 493 kts 146°
2026-04-21 02:29 -1.36775 105.60077 34923 ft 494 kts 146°
2026-04-21 02:29 -1.42476 105.63935 34924 ft 495 kts 146°
2026-04-21 02:30 -1.48195 105.67806 34925 ft 496 kts 146°
2026-04-21 02:30 -1.52948 105.71023 34927 ft 497 kts 146°
2026-04-21 02:31 -1.58676 105.74901 34920 ft 497 kts 146°
2026-04-21 02:31 -1.64409 105.78783 34924 ft 498 kts 146°
2026-04-21 02:32 -1.70145 105.82666 34926 ft 498 kts 146°
2026-04-21 02:32 -1.75885 105.86552 34924 ft 497 kts 146°
2026-04-21 02:33 -1.81582 105.90410 34923 ft 497 kts 146°
2026-04-21 02:33 -1.87308 105.94287 34923 ft 497 kts 146°
2026-04-21 02:34 -1.93038 105.98169 34926 ft 497 kts 146°
2026-04-21 02:34 -1.98765 106.02047 34928 ft 497 kts 146°
2026-04-21 02:35 -2.04495 106.05929 34923 ft 497 kts 146°
2026-04-21 02:35 -2.10226 106.09812 34924 ft 497 kts 146°
2026-04-21 02:36 -2.15798 106.13930 34926 ft 498 kts 138°
2026-04-21 02:36 -2.20560 106.18954 34924 ft 498 kts 128°
2026-04-21 02:37 -2.24797 106.24424 34923 ft 498 kts 128°
2026-04-21 02:37 -2.28994 106.29881 34921 ft 498 kts 128°
2026-04-21 02:38 -2.33247 106.35357 34922 ft 498 kts 128°
2026-04-21 02:38 -2.37514 106.40816 34925 ft 498 kts 128°
2026-04-21 02:39 -2.41783 106.46272 34920 ft 498 kts 128°
2026-04-21 02:39 -2.46048 106.51726 34923 ft 497 kts 128°
2026-04-21 02:40 -2.50308 106.57176 34921 ft 497 kts 128°
2026-04-21 02:40 -2.54570 106.62630 34925 ft 497 kts 128°
2026-04-21 02:41 -2.58829 106.68081 34918 ft 497 kts 128°
2026-04-21 02:41 -2.63087 106.73530 34919 ft 497 kts 128°
2026-04-21 02:42 -2.67347 106.78984 34920 ft 497 kts 128°
2026-04-21 02:42 -2.71577 106.84399 34919 ft 497 kts 128°
2026-04-21 02:43 -2.75839 106.89856 34921 ft 497 kts 128°
2026-04-21 02:43 -2.80093 106.95303 34922 ft 497 kts 128°
2026-04-21 02:44 -2.84358 107.00766 34921 ft 497 kts 128°
2026-04-21 02:44 -2.88618 107.06223 34927 ft 498 kts 128°
2026-04-21 02:45 -2.92880 107.11684 34919 ft 498 kts 128°
2026-04-21 02:45 -2.97138 107.17138 34923 ft 497 kts 128°
2026-04-21 02:46 -3.01365 107.22556 34921 ft 497 kts 128°
2026-04-21 02:46 -3.05623 107.28013 34924 ft 497 kts 128°
2026-04-21 02:47 -3.09876 107.33465 34921 ft 497 kts 128°
2026-04-21 02:47 -3.14128 107.38916 34920 ft 497 kts 128°
2026-04-21 02:48 -3.18375 107.44362 34922 ft 496 kts 128°
2026-04-21 02:48 -3.22620 107.49806 34919 ft 496 kts 128°
2026-04-21 02:49 -3.26869 107.55257 34920 ft 496 kts 128°
2026-04-21 02:49 -3.31107 107.60695 34919 ft 495 kts 128°
2026-04-21 02:50 -3.35360 107.66124 34919 ft 495 kts 128°
2026-04-21 02:50 -3.39633 107.71527 34919 ft 495 kts 128°
2026-04-21 02:51 -3.43878 107.76896 34920 ft 495 kts 128°
2026-04-21 02:51 -3.48151 107.82310 34919 ft 495 kts 128°
2026-04-21 02:52 -3.52423 107.87727 34921 ft 496 kts 128°
2026-04-21 02:52 -3.56698 107.93150 34920 ft 496 kts 128°
2026-04-21 02:53 -3.60978 107.98579 34920 ft 497 kts 128°
2026-04-21 02:53 -3.65260 108.04012 34921 ft 497 kts 127°
2026-04-21 02:54 -3.69548 108.09453 34921 ft 497 kts 127°
2026-04-21 02:54 -3.73835 108.14894 34917 ft 497 kts 127°
2026-04-21 02:55 -3.78122 108.20337 34921 ft 498 kts 127°
2026-04-21 02:55 -3.82409 108.25780 34921 ft 498 kts 127°
2026-04-21 02:56 -3.86699 108.31227 34919 ft 498 kts 127°
2026-04-21 02:56 -3.93111 108.39371 34920 ft 498 kts 127°
2026-04-21 02:57 -3.97407 108.44829 34919 ft 499 kts 127°
2026-04-21 02:57 -4.01706 108.50291 34920 ft 499 kts 127°
2026-04-21 02:58 -4.06011 108.55763 34923 ft 500 kts 127°
2026-04-21 02:58 -4.10311 108.61228 34919 ft 500 kts 127°
2026-04-21 02:59 -4.14600 108.66682 34922 ft 501 kts 127°
2026-04-21 02:59 -4.18913 108.72166 34919 ft 501 kts 127°
2026-04-21 03:00 -4.23223 108.77648 34918 ft 501 kts 127°
2026-04-21 03:00 -4.27532 108.83130 34917 ft 501 kts 127°
2026-04-21 03:01 -4.31847 108.88620 34918 ft 501 kts 127°
2026-04-21 03:01 -4.36158 108.94107 34918 ft 501 kts 127°
2026-04-21 03:02 -4.40477 108.99604 34914 ft 501 kts 127°
2026-04-21 03:02 -4.44790 109.05096 34912 ft 501 kts 127°
2026-04-21 03:03 -4.49069 109.10545 34915 ft 501 kts 127°
2026-04-21 03:03 -4.53382 109.16039 34908 ft 501 kts 127°
2026-04-21 03:04 -4.57691 109.21529 34914 ft 501 kts 127°
2026-04-21 03:04 -4.61997 109.27016 34917 ft 501 kts 127°
2026-04-21 03:05 -4.66307 109.32509 34914 ft 501 kts 127°
2026-04-21 03:05 -4.70613 109.37999 34912 ft 500 kts 127°
2026-04-21 03:06 -4.74915 109.43484 34910 ft 500 kts 127°
2026-04-21 03:06 -4.79213 109.48966 34909 ft 500 kts 127°
2026-04-21 03:07 -4.83485 109.54415 34911 ft 500 kts 127°
2026-04-21 03:07 -4.87776 109.59892 34909 ft 499 kts 127°
2026-04-21 03:08 -4.92073 109.65376 34907 ft 499 kts 127°
2026-04-21 03:08 -4.96364 109.70854 34910 ft 499 kts 127°
2026-04-21 03:09 -5.00657 109.76335 34909 ft 499 kts 127°
2026-04-21 03:09 -5.04949 109.81817 34908 ft 499 kts 127°
2026-04-21 03:10 -5.09242 109.87302 34908 ft 499 kts 127°
2026-04-21 03:10 -5.13531 109.92783 34907 ft 500 kts 127°
2026-04-21 03:11 -5.17824 109.98270 34906 ft 500 kts 127°
2026-04-21 03:11 -5.22120 110.03763 34908 ft 500 kts 127°
2026-04-21 03:12 -5.26386 110.09217 34903 ft 500 kts 127°
2026-04-21 03:12 -5.30681 110.14712 34901 ft 500 kts 127°
2026-04-21 03:13 -5.34975 110.20205 34902 ft 500 kts 127°
2026-04-21 03:13 -5.39262 110.25693 34902 ft 499 kts 127°
2026-04-21 03:14 -5.43552 110.31186 34903 ft 499 kts 127°
2026-04-21 03:14 -5.47833 110.36667 34907 ft 499 kts 127°
2026-04-21 03:15 -5.52116 110.42091 34904 ft 499 kts 127°
2026-04-21 03:15 -5.56455 110.47543 34903 ft 499 kts 127°
2026-04-21 03:16 -5.60782 110.52987 34902 ft 499 kts 127°
2026-04-21 03:16 -5.64378 110.57520 34906 ft 499 kts 127°
2026-04-21 03:17 -5.68701 110.62975 34902 ft 499 kts 127°
2026-04-21 03:17 -5.73021 110.68427 34902 ft 499 kts 127°
2026-04-21 03:18 -5.77344 110.73886 34902 ft 499 kts 127°
2026-04-21 03:18 -5.81666 110.79343 34903 ft 499 kts 127°
2026-04-21 03:19 -5.85989 110.84804 34901 ft 499 kts 127°
2026-04-21 03:19 -5.90278 110.90223 34900 ft 499 kts 127°
2026-04-21 03:20 -5.94596 110.95679 34901 ft 498 kts 127°
2026-04-21 03:20 -5.98913 111.01136 34894 ft 498 kts 127°
2026-04-21 03:21 -6.03227 111.06592 34895 ft 498 kts 127°
2026-04-21 03:21 -6.07538 111.12045 34893 ft 498 kts 127°
2026-04-21 03:22 -6.11842 111.17490 34892 ft 498 kts 127°
2026-04-21 03:22 -6.16149 111.22941 34890 ft 498 kts 127°
2026-04-21 03:23 -6.20424 111.28354 34887 ft 497 kts 127°
2026-04-21 03:23 -6.24724 111.33798 34885 ft 497 kts 127°
2026-04-21 03:24 -6.29021 111.39241 34885 ft 497 kts 127°
2026-04-21 03:24 -6.33317 111.44685 34883 ft 496 kts 127°
2026-04-21 03:25 -6.37606 111.50121 34879 ft 496 kts 127°
2026-04-21 03:25 -6.41895 111.55559 34881 ft 496 kts 127°
2026-04-21 03:26 -6.46183 111.60997 34877 ft 496 kts 127°
2026-04-21 03:26 -6.50469 111.66435 34877 ft 496 kts 127°
2026-04-21 03:27 -6.54751 111.71869 34877 ft 496 kts 127°
2026-04-21 03:27 -6.59034 111.77305 34878 ft 496 kts 127°
2026-04-21 03:28 -6.63318 111.82745 34876 ft 496 kts 127°
2026-04-21 03:28 -6.67605 111.88190 34875 ft 496 kts 127°
2026-04-21 03:29 -6.71864 111.93602 34875 ft 496 kts 127°
2026-04-21 03:29 -6.76150 111.99049 34876 ft 496 kts 127°
2026-04-21 03:30 -6.80430 112.04491 34875 ft 496 kts 127°
2026-04-21 03:30 -6.84713 112.09938 34872 ft 496 kts 127°
2026-04-21 03:31 -6.89003 112.15396 34872 ft 496 kts 127°
2026-04-21 03:31 -6.93255 112.20808 34872 ft 496 kts 127°
2026-04-21 03:32 -6.97540 112.26262 34867 ft 496 kts 127°
2026-04-21 03:32 -7.01828 112.31724 34862 ft 496 kts 127°
2026-04-21 03:33 -7.06107 112.37173 34864 ft 496 kts 127°
2026-04-21 03:33 -7.10388 112.42630 34863 ft 496 kts 127°
2026-04-21 03:34 -7.14672 112.48092 34864 ft 496 kts 127°
2026-04-21 03:34 -7.18920 112.53508 34868 ft 496 kts 127°
2026-04-21 03:35 -7.23191 112.58957 34873 ft 495 kts 127°
2026-04-21 03:35 -7.27460 112.64405 34878 ft 495 kts 127°
2026-04-21 03:36 -7.31735 112.69863 34884 ft 496 kts 127°
2026-04-21 03:36 -7.36012 112.75313 34883 ft 496 kts 128°
2026-04-21 03:37 -7.40833 112.80278 34887 ft 497 kts 138°
2026-04-21 03:37 -7.46070 112.84834 34886 ft 497 kts 139°
2026-04-21 03:38 -7.51286 112.89354 34863 ft 498 kts 138°
2026-04-21 03:38 -7.56511 112.93930 34866 ft 498 kts 138°
2026-04-21 03:39 -7.61724 112.98526 34877 ft 498 kts 138°
2026-04-21 03:39 -7.66933 113.03127 34884 ft 498 kts 138°
2026-04-21 03:40 -7.72142 113.07727 34887 ft 497 kts 138°
2026-04-21 03:40 -7.77351 113.12326 34894 ft 497 kts 138°
2026-04-21 03:41 -7.82528 113.16899 34892 ft 497 kts 138°
2026-04-21 03:41 -7.87738 113.21502 34905 ft 497 kts 138°
2026-04-21 03:42 -7.92947 113.26104 34902 ft 497 kts 138°
2026-04-21 03:42 -7.98151 113.30706 34901 ft 497 kts 138°
2026-04-21 03:43 -8.03353 113.35307 34900 ft 497 kts 138°
2026-04-21 03:43 -8.08560 113.39913 34902 ft 497 kts 138°
2026-04-21 03:44 -8.13763 113.44518 34902 ft 497 kts 137°
2026-04-21 03:44 -8.18929 113.49092 34903 ft 497 kts 138°
2026-04-21 03:45 -8.24127 113.53696 34900 ft 496 kts 138°
2026-04-21 03:45 -8.29319 113.58296 34898 ft 496 kts 138°
2026-04-21 03:46 -8.34505 113.62893 34896 ft 496 kts 138°
2026-04-21 03:46 -8.39697 113.67496 34892 ft 496 kts 138°
2026-04-21 03:47 -8.44891 113.72103 34894 ft 496 kts 138°
2026-04-21 03:47 -8.50074 113.76703 34893 ft 496 kts 138°
2026-04-21 03:48 -8.55224 113.81274 34893 ft 496 kts 138°
2026-04-21 03:48 -8.60404 113.85874 34887 ft 496 kts 138°
2026-04-21 03:49 -8.65594 113.90484 34888 ft 496 kts 138°
2026-04-21 03:49 -8.70780 113.95093 34890 ft 496 kts 138°
2026-04-21 03:50 -8.75969 113.99705 34887 ft 497 kts 138°
2026-04-21 03:50 -8.81162 114.04323 34886 ft 497 kts 138°
2026-04-21 03:51 -8.86355 114.08944 34885 ft 497 kts 138°
2026-04-21 03:51 -8.91509 114.13531 34885 ft 497 kts 138°
2026-04-21 03:52 -8.96702 114.18155 34884 ft 497 kts 138°
2026-04-21 03:52 -9.01898 114.22783 34885 ft 497 kts 138°
2026-04-21 03:53 -9.07086 114.27406 34884 ft 497 kts 138°
2026-04-21 03:53 -9.12276 114.32033 34883 ft 498 kts 138°
2026-04-21 03:54 -9.17475 114.36669 34885 ft 498 kts 138°
2026-04-21 03:54 -9.22683 114.41316 34881 ft 499 kts 138°
2026-04-21 03:55 -9.27892 114.45965 34879 ft 499 kts 138°
2026-04-21 03:55 -9.33102 114.50617 34881 ft 500 kts 138°
2026-04-21 03:56 -9.38318 114.55276 34881 ft 500 kts 138°
2026-04-21 03:56 -9.43530 114.59934 34882 ft 500 kts 138°
2026-04-21 03:57 -9.48740 114.64592 34880 ft 499 kts 138°
2026-04-21 03:57 -9.53952 114.69253 34877 ft 499 kts 138°
2026-04-21 03:58 -9.59117 114.73876 34874 ft 499 kts 138°
2026-04-21 03:58 -9.64323 114.78536 34875 ft 499 kts 138°
2026-04-21 03:59 -9.69522 114.83192 34875 ft 499 kts 138°
2026-04-21 04:00 -9.77327 114.90185 34870 ft 499 kts 138°
2026-04-21 04:00 -9.82529 114.94849 34871 ft 499 kts 138°
2026-04-21 04:01 -9.87739 114.99522 34871 ft 499 kts 138°
2026-04-21 04:01 -9.92903 115.04156 34873 ft 499 kts 139°
2026-04-21 04:02 -9.98107 115.08827 34872 ft 499 kts 138°
2026-04-21 04:02 -10.03308 115.13498 34873 ft 499 kts 138°
2026-04-21 04:03 -10.08498 115.18161 34871 ft 498 kts 138°
2026-04-21 04:03 -10.13683 115.22822 34871 ft 497 kts 138°
2026-04-21 04:04 -10.18845 115.27464 34868 ft 494 kts 138°
2026-04-21 04:04 -10.23982 115.32085 34871 ft 492 kts 138°
2026-04-21 04:05 -10.28233 115.35911 34871 ft 490 kts 138°
2026-04-21 04:05 -10.34156 115.41245 34864 ft 489 kts 138°
2026-04-21 04:06 -10.38421 115.45088 34872 ft 489 kts 138°
2026-04-21 04:06 -10.43521 115.49685 34873 ft 491 kts 138°
2026-04-21 04:07 -10.48636 115.54297 34874 ft 493 kts 138°
2026-04-21 04:07 -10.53779 115.58937 34875 ft 495 kts 138°
2026-04-21 04:08 -10.58944 115.63598 34875 ft 498 kts 138°
2026-04-21 04:08 -10.64096 115.68250 34876 ft 499 kts 138°
2026-04-21 04:09 -10.69298 115.72950 34875 ft 501 kts 138°
2026-04-21 04:09 -10.74517 115.77666 34877 ft 502 kts 138°
2026-04-21 04:10 -10.79739 115.82388 34870 ft 502 kts 138°
2026-04-21 04:10 -10.84954 115.87106 34872 ft 501 kts 138°
2026-04-21 04:11 -10.90162 115.91820 34874 ft 501 kts 138°
2026-04-21 04:11 -10.95366 115.96533 34876 ft 501 kts 138°
2026-04-21 04:12 -11.00570 116.01248 34870 ft 500 kts 138°
2026-04-21 04:12 -11.05729 116.05924 34873 ft 500 kts 138°
2026-04-21 04:13 -11.10918 116.10630 34872 ft 500 kts 137°
2026-04-21 04:13 -11.16110 116.15341 34873 ft 499 kts 137°
2026-04-21 04:14 -11.21300 116.20052 34878 ft 499 kts 137°
2026-04-21 04:14 -11.26488 116.24764 34875 ft 500 kts 137°
2026-04-21 04:15 -11.31649 116.29455 34878 ft 500 kts 137°
2026-04-21 04:15 -11.36838 116.34173 34877 ft 500 kts 137°
2026-04-21 04:16 -11.42030 116.38894 34878 ft 500 kts 137°
2026-04-21 04:16 -11.47221 116.43619 34879 ft 500 kts 137°
2026-04-21 04:17 -11.52412 116.48346 34874 ft 500 kts 137°
2026-04-21 04:17 -11.57609 116.53081 34877 ft 500 kts 137°
2026-04-21 04:18 -11.62801 116.57815 34878 ft 500 kts 137°
2026-04-21 04:18 -11.67988 116.62544 34874 ft 500 kts 137°
2026-04-21 04:19 -11.73173 116.67275 34871 ft 500 kts 137°
2026-04-21 04:19 -11.78357 116.72009 34880 ft 500 kts 137°
2026-04-21 04:20 -11.83513 116.76719 34876 ft 500 kts 137°
2026-04-21 04:20 -11.88702 116.81461 34883 ft 501 kts 137°
2026-04-21 04:21 -11.93900 116.86216 34876 ft 502 kts 137°
2026-04-21 04:21 -11.99108 116.90981 34877 ft 502 kts 137°
2026-04-21 04:22 -12.04380 116.95676 34876 ft 503 kts 139°
2026-04-21 04:22 -12.09715 117.00242 34877 ft 503 kts 139°
2026-04-21 04:23 -12.15086 117.04833 34876 ft 504 kts 139°
2026-04-21 04:23 -12.20452 117.09454 34879 ft 504 kts 139°
2026-04-21 04:24 -12.25810 117.14090 34878 ft 505 kts 139°
2026-04-21 04:24 -12.31177 117.18738 34880 ft 505 kts 139°
2026-04-21 04:25 -12.36545 117.23388 34881 ft 506 kts 139°
2026-04-21 04:25 -12.41892 117.28021 34880 ft 506 kts 139°
2026-04-21 04:26 -12.47258 117.32672 34878 ft 506 kts 139°
2026-04-21 04:26 -12.52634 117.37336 34884 ft 506 kts 139°
2026-04-21 04:27 -12.58010 117.42001 34880 ft 507 kts 139°
2026-04-21 04:27 -12.63391 117.46673 34881 ft 507 kts 139°
2026-04-21 04:28 -12.68771 117.51348 34886 ft 507 kts 139°
2026-04-21 04:28 -12.74147 117.56022 34884 ft 507 kts 139°
2026-04-21 04:29 -12.79535 117.60708 34885 ft 507 kts 139°
2026-04-21 04:29 -12.84919 117.65394 34884 ft 507 kts 139°
2026-04-21 04:30 -12.90266 117.70051 34886 ft 507 kts 139°
2026-04-21 04:30 -12.95646 117.74739 34884 ft 508 kts 139°
2026-04-21 04:31 -13.01032 117.79435 34883 ft 508 kts 139°
2026-04-21 04:31 -13.06414 117.84130 34887 ft 508 kts 139°
2026-04-21 04:32 -13.11792 117.88825 34886 ft 508 kts 139°
2026-04-21 04:32 -13.17174 117.93526 34883 ft 508 kts 139°
2026-04-21 04:33 -13.22554 117.98228 34884 ft 508 kts 139°
2026-04-21 04:33 -13.27937 118.02937 34888 ft 508 kts 140°
2026-04-21 04:34 -13.33314 118.07642 34887 ft 508 kts 140°
2026-04-21 04:34 -13.38698 118.12355 34888 ft 508 kts 140°
2026-04-21 04:35 -13.44044 118.17038 34886 ft 508 kts 140°
2026-04-21 04:35 -13.49423 118.21754 34888 ft 509 kts 140°
2026-04-21 04:36 -13.54811 118.26480 34886 ft 509 kts 140°
2026-04-21 04:36 -13.60195 118.31207 34890 ft 509 kts 140°
2026-04-21 04:37 -13.65589 118.35943 34888 ft 509 kts 140°
2026-04-21 04:37 -13.70988 118.40687 34888 ft 510 kts 140°
2026-04-21 04:38 -13.76352 118.45404 34891 ft 510 kts 140°
2026-04-21 04:38 -13.81747 118.50151 34895 ft 511 kts 140°
2026-04-21 04:39 -13.87149 118.54908 34890 ft 511 kts 140°
2026-04-21 04:39 -13.92553 118.59669 34891 ft 511 kts 140°
2026-04-21 04:40 -13.97951 118.64428 34893 ft 510 kts 140°
2026-04-21 04:40 -14.03342 118.69183 34893 ft 510 kts 140°
2026-04-21 04:41 -14.08735 118.73944 34891 ft 510 kts 140°
2026-04-21 04:41 -14.14120 118.78700 34893 ft 509 kts 140°
2026-04-21 04:42 -14.19497 118.83452 34897 ft 509 kts 140°
2026-04-21 04:42 -14.24877 118.88211 34897 ft 510 kts 140°
2026-04-21 04:43 -14.30230 118.92948 34898 ft 510 kts 140°
2026-04-21 04:43 -14.35615 118.97717 34898 ft 511 kts 140°
2026-04-21 04:44 -14.41005 119.02493 34899 ft 511 kts 140°
2026-04-21 04:44 -14.46399 119.07276 34898 ft 511 kts 140°
2026-04-21 04:45 -14.51796 119.12066 34902 ft 512 kts 140°
2026-04-21 04:45 -14.57198 119.16862 34901 ft 512 kts 140°
2026-04-21 04:46 -14.62598 119.21661 34903 ft 513 kts 140°
2026-04-21 04:46 -14.68010 119.26472 34902 ft 513 kts 139°
2026-04-21 04:47 -14.73418 119.31283 34901 ft 513 kts 139°
2026-04-21 04:47 -14.78832 119.36104 34905 ft 513 kts 139°
2026-04-21 04:48 -14.84210 119.40896 34904 ft 514 kts 139°
2026-04-21 04:48 -14.89624 119.45722 34902 ft 514 kts 139°
2026-04-21 04:49 -14.95036 119.50551 34907 ft 514 kts 139°
2026-04-21 04:49 -15.00442 119.55377 34908 ft 513 kts 139°
2026-04-21 04:50 -15.05853 119.60212 34906 ft 513 kts 139°
2026-04-21 04:50 -15.11255 119.65041 34908 ft 513 kts 139°
2026-04-21 04:51 -15.16658 119.69875 34910 ft 513 kts 139°
2026-04-21 04:51 -15.22063 119.74714 34909 ft 513 kts 139°
2026-04-21 04:52 -15.27465 119.79554 34910 ft 513 kts 139°
2026-04-21 04:52 -15.32864 119.84394 34914 ft 513 kts 139°
2026-04-21 04:53 -15.38227 119.89206 34911 ft 513 kts 139°
2026-04-21 04:53 -15.42744 119.93262 34914 ft 513 kts 139°
2026-04-21 04:54 -15.49019 119.98898 34913 ft 513 kts 139°
2026-04-21 04:54 -15.53538 120.02962 34917 ft 513 kts 139°
2026-04-21 04:55 -15.58935 120.07817 34917 ft 513 kts 139°
2026-04-21 04:55 -15.64333 120.12677 34916 ft 514 kts 139°
2026-04-21 04:56 -15.69694 120.17507 34919 ft 514 kts 139°
2026-04-21 04:56 -15.75090 120.22372 34919 ft 514 kts 139°
2026-04-21 04:57 -15.80488 120.27243 34916 ft 514 kts 139°
2026-04-21 04:57 -15.85885 120.32116 34918 ft 514 kts 139°
2026-04-21 04:58 -15.91283 120.36993 34921 ft 514 kts 139°
2026-04-21 04:58 -15.96681 120.41875 34917 ft 514 kts 139°
2026-04-21 04:59 -16.02055 120.46738 34921 ft 515 kts 139°
2026-04-21 04:59 -16.07458 120.51632 34926 ft 515 kts 139°
2026-04-21 05:00 -16.12862 120.56529 34918 ft 515 kts 139°
2026-04-21 05:00 -16.20972 120.63885 34921 ft 516 kts 140°
2026-04-21 05:01 -16.26385 120.68801 34922 ft 516 kts 140°
2026-04-21 05:01 -16.31797 120.73719 34923 ft 517 kts 140°
2026-04-21 05:02 -16.37221 120.78651 34921 ft 517 kts 140°
2026-04-21 05:02 -16.42639 120.83582 34924 ft 518 kts 140°
2026-04-21 05:03 -16.48035 120.88497 34920 ft 518 kts 140°
2026-04-21 05:03 -16.53458 120.93440 34916 ft 518 kts 140°
2026-04-21 05:04 -16.58889 120.98395 34926 ft 519 kts 140°
2026-04-21 05:04 -16.64328 121.03360 34931 ft 519 kts 140°
2026-04-21 05:05 -16.69770 121.08332 34928 ft 520 kts 140°
2026-04-21 05:05 -16.75218 121.13313 34922 ft 520 kts 140°
2026-04-21 05:06 -16.80624 121.18260 34923 ft 520 kts 140°
2026-04-21 05:06 -16.86065 121.23243 34922 ft 520 kts 140°
2026-04-21 05:07 -16.91511 121.28235 34925 ft 520 kts 140°
2026-04-21 05:07 -16.96956 121.33229 34924 ft 521 kts 140°
2026-04-21 05:08 -17.02395 121.38222 34926 ft 521 kts 140°
2026-04-21 05:08 -17.07836 121.43221 34921 ft 521 kts 140°
2026-04-21 05:09 -17.13284 121.48230 34921 ft 521 kts 140°
2026-04-21 05:09 -17.18729 121.53241 34919 ft 521 kts 140°
2026-04-21 05:10 -17.24131 121.58216 34922 ft 521 kts 140°
2026-04-21 05:10 -17.29567 121.63227 34925 ft 521 kts 140°
2026-04-21 05:11 -17.35006 121.68244 34923 ft 521 kts 140°
2026-04-21 05:11 -17.40438 121.73259 34921 ft 521 kts 140°
2026-04-21 05:12 -17.45868 121.78277 34919 ft 520 kts 140°
2026-04-21 05:12 -17.51299 121.83299 34920 ft 520 kts 140°
2026-04-21 05:13 -17.56727 121.88323 34917 ft 520 kts 140°
2026-04-21 05:13 -17.62150 121.93347 34920 ft 520 kts 140°
2026-04-21 05:14 -17.67574 121.98376 34918 ft 520 kts 140°
2026-04-21 05:14 -17.72992 122.03403 34915 ft 520 kts 140°
2026-04-21 05:15 -17.78376 122.08403 34913 ft 520 kts 140°
2026-04-21 05:15 -17.83795 122.13441 34914 ft 520 kts 140°
2026-04-21 05:16 -17.89209 122.18478 34915 ft 520 kts 140°
2026-04-21 05:16 -17.94614 122.23537 34914 ft 520 kts 138°
2026-04-21 05:17 -17.99668 122.28985 34915 ft 521 kts 134°
2026-04-21 05:17 -18.04614 122.34549 34915 ft 521 kts 134°
2026-04-21 05:18 -18.09569 122.40108 34911 ft 521 kts 134°
2026-04-21 05:18 -18.14551 122.45660 34911 ft 521 kts 135°
2026-04-21 05:19 -18.19508 122.51173 34907 ft 522 kts 135°
2026-04-21 05:19 -18.24495 122.56725 34912 ft 522 kts 135°
2026-04-21 05:20 -18.29477 122.62279 34909 ft 522 kts 135°
2026-04-21 05:20 -18.34458 122.67838 34909 ft 522 kts 135°
2026-04-21 05:21 -18.39443 122.73408 34913 ft 522 kts 135°
2026-04-21 05:21 -18.44419 122.78971 34912 ft 522 kts 135°
2026-04-21 05:22 -18.49396 122.84542 34916 ft 522 kts 135°
2026-04-21 05:22 -18.54343 122.90082 34917 ft 522 kts 135°
2026-04-21 05:23 -18.59322 122.95665 34917 ft 522 kts 135°
2026-04-21 05:23 -18.64299 123.01250 34917 ft 523 kts 135°
2026-04-21 05:24 -18.69279 123.06844 34917 ft 523 kts 135°
2026-04-21 05:24 -18.74259 123.12442 34920 ft 523 kts 135°
2026-04-21 05:25 -18.79242 123.18050 34921 ft 524 kts 135°
2026-04-21 05:25 -18.84224 123.23663 34922 ft 524 kts 135°
2026-04-21 05:26 -18.89212 123.29288 34926 ft 524 kts 135°
2026-04-21 05:26 -18.94197 123.34920 34925 ft 525 kts 135°
2026-04-21 05:27 -18.99151 123.40592 34917 ft 525 kts 134°
2026-04-21 05:27 -19.04091 123.46277 34917 ft 526 kts 134°
2026-04-21 05:28 -19.09014 123.51942 34921 ft 526 kts 134°
2026-04-21 05:28 -19.13967 123.57639 34936 ft 526 kts 134°
2026-04-21 05:29 -19.18921 123.63340 34922 ft 526 kts 134°
2026-04-21 05:29 -19.23874 123.69045 34923 ft 527 kts 134°
2026-04-21 05:30 -19.28834 123.74765 34927 ft 527 kts 134°
2026-04-21 05:30 -19.33755 123.80446 34925 ft 527 kts 134°
2026-04-21 05:31 -19.38704 123.86164 34923 ft 527 kts 134°
2026-04-21 05:31 -19.43659 123.91894 34925 ft 527 kts 134°
2026-04-21 05:32 -19.48612 123.97628 34924 ft 527 kts 134°
2026-04-21 05:32 -19.53560 124.03362 34923 ft 527 kts 134°
2026-04-21 05:33 -19.58509 124.09102 34926 ft 527 kts 134°
2026-04-21 05:33 -19.63458 124.14848 34929 ft 527 kts 134°
2026-04-21 05:34 -19.68373 124.20561 34929 ft 527 kts 134°
2026-04-21 05:34 -19.73317 124.26313 34933 ft 527 kts 134°
2026-04-21 05:35 -19.78291 124.32105 34932 ft 528 kts 134°
2026-04-21 05:35 -19.83209 124.37837 34937 ft 528 kts 134°
2026-04-21 05:36 -19.88151 124.43604 34938 ft 528 kts 134°
2026-04-21 05:36 -19.93095 124.49379 34941 ft 528 kts 134°
2026-04-21 05:37 -19.98039 124.55159 34939 ft 528 kts 134°
2026-04-21 05:37 -20.02983 124.60945 34940 ft 528 kts 134°
2026-04-21 05:38 -20.07932 124.66743 34944 ft 528 kts 134°
2026-04-21 05:38 -20.12871 124.72535 34946 ft 528 kts 134°
2026-04-21 05:39 -20.17779 124.78297 34945 ft 528 kts 134°
2026-04-21 05:39 -20.22713 124.84095 34948 ft 528 kts 134°
2026-04-21 05:40 -20.27653 124.89906 34949 ft 528 kts 134°
2026-04-21 05:40 -20.32583 124.95711 34951 ft 528 kts 134°
2026-04-21 05:41 -20.37512 125.01521 34951 ft 528 kts 134°
2026-04-21 05:41 -20.41602 125.06347 34955 ft 528 kts 134°
2026-04-21 05:42 -20.47334 125.13117 34955 ft 528 kts 134°
2026-04-21 05:42 -20.51427 125.17956 34954 ft 528 kts 134°
2026-04-21 05:43 -20.56344 125.23774 34958 ft 528 kts 134°
2026-04-21 05:43 -20.61256 125.29593 34960 ft 528 kts 134°
2026-04-21 05:44 -20.66167 125.35417 34960 ft 527 kts 134°
2026-04-21 05:44 -20.71077 125.41246 34954 ft 527 kts 134°
2026-04-21 05:45 -20.75983 125.47076 34957 ft 527 kts 134°
2026-04-21 05:45 -20.80885 125.52908 34963 ft 527 kts 134°
2026-04-21 05:46 -20.85794 125.58755 34963 ft 527 kts 134°
2026-04-21 05:46 -20.90661 125.64558 34962 ft 528 kts 134°
2026-04-21 05:47 -20.95569 125.70399 34965 ft 528 kts 134°
2026-04-21 05:47 -21.00479 125.76229 34964 ft 528 kts 134°
2026-04-21 05:48 -21.05400 125.82078 34963 ft 528 kts 134°
2026-04-21 05:48 -21.10314 125.87929 34966 ft 528 kts 134°
2026-04-21 05:49 -21.15226 125.93786 34971 ft 528 kts 134°
2026-04-21 05:49 -21.20133 125.99644 34970 ft 528 kts 134°
2026-04-21 05:50 -21.25036 126.05503 34974 ft 528 kts 134°
2026-04-21 05:50 -21.29946 126.11376 34965 ft 528 kts 134°
2026-04-21 05:51 -21.34847 126.17246 34971 ft 528 kts 134°
2026-04-21 05:51 -21.39716 126.23082 34964 ft 528 kts 134°
2026-04-21 05:52 -21.44619 126.28967 34974 ft 528 kts 134°
2026-04-21 05:52 -21.49513 126.34847 34978 ft 528 kts 134°
2026-04-21 05:53 -21.54407 126.40733 34982 ft 528 kts 134°
2026-04-21 05:53 -21.59300 126.46625 34970 ft 528 kts 134°
2026-04-21 05:54 -21.64189 126.52517 34987 ft 528 kts 134°
2026-04-21 05:54 -21.69077 126.58416 34981 ft 528 kts 134°
2026-04-21 05:55 -21.73943 126.64294 34981 ft 528 kts 134°
2026-04-21 05:55 -21.78827 126.70202 34981 ft 528 kts 134°
2026-04-21 05:56 -21.83713 126.76118 35004 ft 528 kts 134°
2026-04-21 05:56 -21.88597 126.82037 34987 ft 529 kts 134°
2026-04-21 05:57 -21.93479 126.87960 34993 ft 529 kts 134°
2026-04-21 05:57 -21.98363 126.93894 34990 ft 529 kts 134°
2026-04-21 05:58 -22.03245 126.99832 34994 ft 529 kts 134°
2026-04-21 05:58 -22.08134 127.05784 34991 ft 530 kts 134°
2026-04-21 05:59 -22.13018 127.11737 34992 ft 530 kts 134°
2026-04-21 06:00 -22.20348 127.20685 34999 ft 530 kts 134°
2026-04-21 06:00 -22.25228 127.26650 34996 ft 530 kts 134°
2026-04-21 06:01 -22.30110 127.32625 35002 ft 530 kts 134°
2026-04-21 06:01 -22.34992 127.38606 35001 ft 530 kts 134°
2026-04-21 06:02 -22.39835 127.44547 35007 ft 530 kts 134°
2026-04-21 06:02 -22.44712 127.50537 35003 ft 530 kts 134°
2026-04-21 06:03 -22.49585 127.56528 35007 ft 530 kts 134°
2026-04-21 06:03 -22.54447 127.62512 35010 ft 530 kts 134°
2026-04-21 06:04 -22.59313 127.68509 35002 ft 530 kts 134°
2026-04-21 06:04 -22.64181 127.74515 35011 ft 530 kts 134°
2026-04-21 06:05 -22.69011 127.80480 35014 ft 530 kts 134°
2026-04-21 06:05 -22.73872 127.86492 35008 ft 530 kts 134°
2026-04-21 06:06 -22.78737 127.92515 35011 ft 531 kts 134°
2026-04-21 06:06 -22.83593 127.98534 35011 ft 531 kts 134°
2026-04-21 06:07 -22.88460 128.04574 35016 ft 531 kts 134°
2026-04-21 06:07 -22.93318 128.10610 35012 ft 531 kts 134°
2026-04-21 06:08 -22.98154 128.16626 35012 ft 532 kts 134°
2026-04-21 06:08 -23.03018 128.22684 35014 ft 532 kts 134°
2026-04-21 06:09 -23.07883 128.28751 35018 ft 532 kts 134°
2026-04-21 06:09 -23.12747 128.34823 35012 ft 533 kts 134°
2026-04-21 06:10 -23.17614 128.40909 35014 ft 533 kts 134°
2026-04-21 06:10 -23.22447 128.47025 35020 ft 534 kts 131°
2026-04-21 06:11 -23.26877 128.53536 35030 ft 536 kts 128°
2026-04-21 06:11 -23.31212 128.60145 35020 ft 536 kts 128°
2026-04-21 06:12 -23.35554 128.66748 35029 ft 537 kts 128°
2026-04-21 06:12 -23.39922 128.73345 35023 ft 537 kts 128°
2026-04-21 06:13 -23.44270 128.79896 35022 ft 537 kts 128°
2026-04-21 06:13 -23.48646 128.86497 35022 ft 537 kts 128°
2026-04-21 06:14 -23.53017 128.93104 35024 ft 537 kts 128°
2026-04-21 06:14 -23.57383 128.99714 35025 ft 537 kts 128°
2026-04-21 06:15 -23.61753 129.06338 35025 ft 537 kts 128°
2026-04-21 06:15 -23.66118 129.12964 35028 ft 538 kts 128°
2026-04-21 06:16 -23.70454 129.19556 35029 ft 538 kts 128°
2026-04-21 06:16 -23.74817 129.26196 35030 ft 538 kts 128°
2026-04-21 06:17 -23.79182 129.32847 35031 ft 538 kts 128°
2026-04-21 06:17 -23.83541 129.39498 35031 ft 539 kts 128°
2026-04-21 06:18 -23.87899 129.46157 35030 ft 539 kts 128°
2026-04-21 06:18 -23.92253 129.52818 35032 ft 539 kts 128°
2026-04-21 06:19 -23.96610 129.59494 35033 ft 539 kts 128°
2026-04-21 06:19 -24.00961 129.66169 35032 ft 539 kts 128°
2026-04-21 06:20 -24.05315 129.72857 35036 ft 539 kts 128°
2026-04-21 06:20 -24.09632 129.79498 35036 ft 539 kts 128°
2026-04-21 06:21 -24.13983 129.86199 35033 ft 539 kts 128°
2026-04-21 06:21 -24.18328 129.92901 35035 ft 540 kts 128°
2026-04-21 06:22 -24.22679 129.99621 35039 ft 540 kts 128°
2026-04-21 06:22 -24.27030 130.06350 35042 ft 540 kts 128°
2026-04-21 06:23 -24.31372 130.13074 35043 ft 541 kts 128°
2026-04-21 06:23 -24.35716 130.19810 35042 ft 541 kts 128°
2026-04-21 06:24 -24.40062 130.26559 35049 ft 541 kts 128°
2026-04-21 06:24 -24.44373 130.33264 35037 ft 542 kts 128°
2026-04-21 06:25 -24.48715 130.40026 35049 ft 542 kts 128°
2026-04-21 06:25 -24.53049 130.46784 35054 ft 542 kts 128°
2026-04-21 06:26 -24.57388 130.53559 35048 ft 542 kts 128°
2026-04-21 06:26 -24.61724 130.60339 35051 ft 542 kts 128°
2026-04-21 06:27 -24.66052 130.67116 35050 ft 542 kts 128°
2026-04-21 06:27 -24.70382 130.73906 35053 ft 542 kts 128°
2026-04-21 06:28 -24.74711 130.80704 35051 ft 542 kts 128°
2026-04-21 06:28 -24.79036 130.87505 35057 ft 542 kts 128°
2026-04-21 06:29 -24.83357 130.94309 35056 ft 542 kts 128°
2026-04-21 06:29 -24.86953 130.99979 35060 ft 543 kts 128°
2026-04-21 06:30 -24.91972 131.07903 35062 ft 543 kts 128°
2026-04-21 06:30 -24.95562 131.13579 35060 ft 543 kts 128°
2026-04-21 06:31 -24.99907 131.20459 35063 ft 543 kts 128°
2026-04-21 06:31 -25.04915 131.28400 35059 ft 543 kts 128°
2026-04-21 06:32 -25.08497 131.34088 35067 ft 543 kts 128°
2026-04-21 06:32 -25.12809 131.40945 35068 ft 543 kts 128°
2026-04-21 06:33 -25.17114 131.47800 35067 ft 543 kts 128°
2026-04-21 06:33 -25.21418 131.54663 35069 ft 543 kts 128°
2026-04-21 06:34 -25.25719 131.61532 35073 ft 544 kts 128°
2026-04-21 06:34 -25.30022 131.68413 35070 ft 544 kts 128°
2026-04-21 06:35 -25.34321 131.75298 35075 ft 544 kts 128°
2026-04-21 06:35 -25.38616 131.82187 35076 ft 544 kts 128°
2026-04-21 06:36 -25.42911 131.89086 35066 ft 544 kts 128°
2026-04-21 06:36 -25.47179 131.95950 35085 ft 544 kts 128°
2026-04-21 06:37 -25.51465 132.02856 35085 ft 545 kts 128°
2026-04-21 06:37 -25.55756 132.09778 35072 ft 545 kts 128°
2026-04-21 06:38 -25.60044 132.16706 35092 ft 545 kts 128°
2026-04-21 06:38 -25.63608 132.22473 35077 ft 545 kts 128°
2026-04-21 06:39 -25.68611 132.30580 35077 ft 545 kts 128°
2026-04-21 06:39 -25.72893 132.37529 35085 ft 545 kts 128°
2026-04-21 06:40 -25.77144 132.44439 35090 ft 545 kts 128°
2026-04-21 06:40 -25.81421 132.51400 35085 ft 545 kts 128°
2026-04-21 06:41 -25.85689 132.58358 35086 ft 545 kts 128°
2026-04-21 06:41 -25.89962 132.65334 35094 ft 545 kts 128°
2026-04-21 06:42 -25.94226 132.72305 35095 ft 546 kts 128°
2026-04-21 06:42 -25.98488 132.79285 35088 ft 546 kts 128°
2026-04-21 06:43 -26.02751 132.86277 35091 ft 546 kts 128°
2026-04-21 06:43 -26.07011 132.93274 35090 ft 546 kts 128°
2026-04-21 06:44 -26.11265 133.00273 35091 ft 546 kts 128°
2026-04-21 06:44 -26.15489 133.07231 35092 ft 546 kts 128°
2026-04-21 06:45 -26.19742 133.14249 35095 ft 546 kts 128°
2026-04-21 06:45 -26.23988 133.21266 35100 ft 546 kts 128°
2026-04-21 06:46 -26.28233 133.28291 35096 ft 546 kts 128°
2026-04-21 06:46 -26.32469 133.35314 35096 ft 546 kts 128°
2026-04-21 06:47 -26.36683 133.42309 35099 ft 547 kts 128°
2026-04-21 06:47 -26.40916 133.49347 35102 ft 547 kts 128°
2026-04-21 06:48 -26.45150 133.56398 35101 ft 547 kts 128°
2026-04-21 06:48 -26.49378 133.63450 35102 ft 547 kts 128°
2026-04-21 06:49 -26.53607 133.70516 35102 ft 547 kts 128°
2026-04-21 06:49 -26.57830 133.77580 35101 ft 547 kts 128°
2026-04-21 06:50 -26.62055 133.84661 35102 ft 547 kts 128°
2026-04-21 06:50 -26.66275 133.91743 35103 ft 547 kts 128°
2026-04-21 06:51 -26.70493 133.98834 35106 ft 547 kts 128°
2026-04-21 06:51 -26.74676 134.05877 35100 ft 547 kts 128°
2026-04-21 06:52 -26.78880 134.12966 35108 ft 547 kts 128°
2026-04-21 06:52 -26.83081 134.20063 35105 ft 546 kts 128°
2026-04-21 06:53 -26.87274 134.27156 35109 ft 546 kts 128°
2026-04-21 06:53 -26.91468 134.34261 35109 ft 546 kts 128°
2026-04-21 06:54 -26.95650 134.41359 35104 ft 546 kts 128°
2026-04-21 06:54 -26.99827 134.48458 35108 ft 545 kts 128°
2026-04-21 06:55 -27.04004 134.55570 35106 ft 545 kts 128°
2026-04-21 06:55 -27.08141 134.62624 35113 ft 545 kts 128°
2026-04-21 06:56 -27.12304 134.69735 35110 ft 544 kts 128°
2026-04-21 06:56 -27.16461 134.76846 35100 ft 544 kts 128°
2026-04-21 06:57 -27.20605 134.83946 35101 ft 543 kts 128°
2026-04-21 06:57 -27.24745 134.91050 35107 ft 543 kts 128°
2026-04-21 06:58 -27.28872 134.98145 35126 ft 542 kts 128°
2026-04-21 06:58 -27.32966 135.05194 35107 ft 541 kts 128°
2026-04-21 06:59 -27.37078 135.12284 35110 ft 540 kts 128°
2026-04-21 06:59 -27.41177 135.19365 35112 ft 540 kts 128°
2026-04-21 07:00 -27.45270 135.26447 35115 ft 539 kts 128°
2026-04-21 07:00 -27.49350 135.33518 35115 ft 538 kts 128°
2026-04-21 07:01 -27.53423 135.40588 35115 ft 537 kts 128°
2026-04-21 07:01 -27.59323 135.51331 35116 ft 539 kts 124°
2026-04-21 07:02 -27.62996 135.58706 35125 ft 538 kts 124°
2026-04-21 07:02 -27.66670 135.66060 35122 ft 538 kts 124°
2026-04-21 07:03 -27.70382 135.73382 35119 ft 537 kts 125°
2026-04-21 07:03 -27.74101 135.80687 35109 ft 537 kts 125°
2026-04-21 07:04 -27.77795 135.87958 35123 ft 536 kts 125°
2026-04-21 07:04 -27.81502 135.95277 35126 ft 537 kts 124°
2026-04-21 07:05 -27.85212 136.02615 35127 ft 537 kts 124°
2026-04-21 07:05 -27.88913 136.09952 35126 ft 537 kts 124°
2026-04-21 07:06 -27.92605 136.17281 35125 ft 536 kts 124°
2026-04-21 07:06 -27.96296 136.24620 35126 ft 536 kts 124°
2026-04-21 07:07 -27.99977 136.31954 35132 ft 536 kts 124°
2026-04-21 07:07 -28.03656 136.39296 35136 ft 535 kts 124°
2026-04-21 07:08 -28.07300 136.46580 35132 ft 535 kts 124°
2026-04-21 07:08 -28.10964 136.53916 35146 ft 535 kts 124°
2026-04-21 07:09 -28.14622 136.61256 35145 ft 535 kts 124°
2026-04-21 07:09 -28.18284 136.68615 35137 ft 535 kts 124°
2026-04-21 07:10 -28.21933 136.75961 35143 ft 534 kts 124°
2026-04-21 07:10 -28.25571 136.83307 35149 ft 534 kts 124°
2026-04-21 07:11 -28.29182 136.90621 35148 ft 534 kts 124°
2026-04-21 07:11 -28.32807 136.97978 35149 ft 533 kts 124°
2026-04-21 07:12 -28.36423 137.05328 35146 ft 533 kts 124°
2026-04-21 07:12 -28.40038 137.12690 35142 ft 533 kts 124°
2026-04-21 07:13 -28.43644 137.20044 35145 ft 532 kts 124°
2026-04-21 07:13 -28.47247 137.27406 35144 ft 532 kts 124°
2026-04-21 07:14 -28.50815 137.34710 35146 ft 532 kts 124°
2026-04-21 07:14 -28.54408 137.42078 35144 ft 533 kts 124°
2026-04-21 07:15 -28.58004 137.49465 35141 ft 533 kts 124°
2026-04-21 07:15 -28.61595 137.56856 35149 ft 535 kts 124°
2026-04-21 07:16 -28.64561 137.62974 35138 ft 528 kts 124°
2026-04-21 07:16 -28.68162 137.70399 35155 ft 540 kts 123°
2026-04-21 07:17 -28.72327 137.79024 35135 ft 529 kts 123°
2026-04-21 07:17 -28.75862 137.86358 35141 ft 528 kts 123°
2026-04-21 07:18 -28.78828 137.92511 35144 ft 528 kts 123°
2026-04-21 07:18 -28.82345 137.99821 35141 ft 529 kts 123°
2026-04-21 07:19 -28.85881 138.07188 35148 ft 530 kts 123°
2026-04-21 07:19 -28.89417 138.14570 35147 ft 530 kts 123°
2026-04-21 07:20 -28.92951 138.21959 35149 ft 530 kts 123°
2026-04-21 07:20 -28.96480 138.29354 35145 ft 530 kts 123°
2026-04-21 07:21 -29.00003 138.36748 35149 ft 530 kts 123°
2026-04-21 07:21 -29.03506 138.44113 35152 ft 530 kts 123°
2026-04-21 07:22 -29.07019 138.51513 35153 ft 530 kts 123°
2026-04-21 07:22 -29.10533 138.58930 35158 ft 530 kts 123°
2026-04-21 07:23 -29.14037 138.66339 35156 ft 530 kts 123°
2026-04-21 07:23 -29.17540 138.73758 35160 ft 530 kts 123°
2026-04-21 07:24 -29.21036 138.81178 35161 ft 530 kts 123°
2026-04-21 07:24 -29.24532 138.88610 35159 ft 530 kts 123°
2026-04-21 07:25 -29.28023 138.96046 35163 ft 530 kts 123°
2026-04-21 07:25 -29.31511 139.03488 35162 ft 530 kts 123°
2026-04-21 07:26 -29.34965 139.10873 35162 ft 529 kts 123°
2026-04-21 07:26 -29.38439 139.18313 35168 ft 529 kts 123°
2026-04-21 07:27 -29.41909 139.25760 35169 ft 529 kts 123°
2026-04-21 07:27 -29.45369 139.33200 35164 ft 528 kts 123°
2026-04-21 07:28 -29.48824 139.40643 35168 ft 528 kts 123°
2026-04-21 07:28 -29.52274 139.48088 35169 ft 527 kts 123°
2026-04-21 07:29 -29.55710 139.55517 35166 ft 526 kts 124°
2026-04-21 07:29 -29.59137 139.62941 35171 ft 526 kts 123°
2026-04-21 07:30 -29.62559 139.70368 35160 ft 525 kts 123°
2026-04-21 07:30 -29.65969 139.77785 35160 ft 525 kts 123°
2026-04-21 07:31 -29.69354 139.85156 35186 ft 525 kts 123°
2026-04-21 07:31 -29.71064 139.88882 35316 ft 528 kts 123°
2026-04-21 07:31 -29.72776 139.92613 35664 ft 527 kts 124°
2026-04-21 07:32 -29.74485 139.96342 36048 ft 525 kts 124°
2026-04-21 07:32 -29.76187 140.00062 36402 ft 525 kts 124°
2026-04-21 07:32 -29.77885 140.03777 36713 ft 524 kts 124°
2026-04-21 07:32 -29.79581 140.07490 37024 ft 525 kts 124°
2026-04-21 07:33 -29.83000 140.14976 37171 ft 530 kts 124°
2026-04-21 07:33 -29.86409 140.22472 37148 ft 524 kts 124°
2026-04-21 07:34 -29.89772 140.29882 37175 ft 521 kts 124°
2026-04-21 07:34 -29.93130 140.37282 37178 ft 520 kts 124°
2026-04-21 07:35 -29.96459 140.44633 37177 ft 520 kts 124°
2026-04-21 07:35 -29.99804 140.52036 37182 ft 520 kts 124°
2026-04-21 07:36 -30.03148 140.59450 37187 ft 521 kts 124°
2026-04-21 07:36 -30.06492 140.66880 37177 ft 522 kts 124°
2026-04-21 07:37 -30.09834 140.74321 37174 ft 522 kts 124°
2026-04-21 07:37 -30.13172 140.81769 37184 ft 522 kts 124°
2026-04-21 07:38 -30.16509 140.89227 37182 ft 523 kts 124°
2026-04-21 07:38 -30.19843 140.96693 37182 ft 522 kts 124°
2026-04-21 07:39 -30.23145 141.04118 37181 ft 522 kts 124°
2026-04-21 07:39 -30.26457 141.11594 37190 ft 522 kts 123°
2026-04-21 07:40 -30.29763 141.19069 37185 ft 521 kts 124°
2026-04-21 07:40 -30.33057 141.26528 37187 ft 521 kts 124°
2026-04-21 07:41 -30.36348 141.33994 37182 ft 520 kts 124°
2026-04-21 07:41 -30.39634 141.41454 37186 ft 520 kts 124°
2026-04-21 07:42 -30.42918 141.48920 37192 ft 519 kts 124°
2026-04-21 07:42 -30.46168 141.56327 37192 ft 519 kts 124°
2026-04-21 07:43 -30.49436 141.63789 37191 ft 519 kts 123°
2026-04-21 07:43 -30.52698 141.71254 37192 ft 519 kts 124°
2026-04-21 07:44 -30.55960 141.78733 37194 ft 519 kts 124°
2026-04-21 07:44 -30.59217 141.86214 37195 ft 518 kts 124°
2026-04-21 07:45 -30.62462 141.93685 37196 ft 518 kts 123°
2026-04-21 07:45 -30.65687 142.01123 37201 ft 518 kts 124°
2026-04-21 07:46 -30.68925 142.08604 37200 ft 518 kts 124°
2026-04-21 07:46 -30.72158 142.16093 37200 ft 518 kts 124°
2026-04-21 07:47 -30.75387 142.23584 37204 ft 517 kts 124°
2026-04-21 07:47 -30.78605 142.31066 37207 ft 517 kts 124°
2026-04-21 07:48 -30.81799 142.38508 37211 ft 517 kts 124°
2026-04-21 07:48 -30.85003 142.45986 37212 ft 516 kts 124°
2026-04-21 07:49 -30.88203 142.53471 37211 ft 516 kts 124°
2026-04-21 07:49 -30.91398 142.60960 37213 ft 516 kts 124°
2026-04-21 07:50 -30.94588 142.68450 37214 ft 515 kts 124°
2026-04-21 07:50 -30.97765 142.75928 37214 ft 515 kts 124°
2026-04-21 07:51 -31.01005 142.83358 37206 ft 511 kts 127°
2026-04-21 07:51 -31.04521 142.90539 37220 ft 509 kts 128°
2026-04-21 07:52 -31.08091 142.97663 37222 ft 509 kts 128°
2026-04-21 07:52 -31.11642 143.04810 37220 ft 509 kts 128°
2026-04-21 07:53 -31.15168 143.11977 37218 ft 509 kts 128°
2026-04-21 07:53 -31.18682 143.19155 37222 ft 509 kts 128°
2026-04-21 07:54 -31.22168 143.26288 37211 ft 509 kts 128°
2026-04-21 07:54 -31.25680 143.33483 37212 ft 508 kts 128°
2026-04-21 07:55 -31.29181 143.40667 37234 ft 508 kts 128°
2026-04-21 07:55 -31.32674 143.47848 37218 ft 508 kts 128°
2026-04-21 07:56 -31.36164 143.55037 37225 ft 508 kts 128°
2026-04-21 07:56 -31.39648 143.62226 37225 ft 508 kts 128°
2026-04-21 07:57 -31.43105 143.69374 37225 ft 508 kts 128°
2026-04-21 07:57 -31.46583 143.76579 37223 ft 508 kts 128°
2026-04-21 07:58 -31.50052 143.83780 37225 ft 507 kts 128°
2026-04-21 07:58 -31.53519 143.90989 37226 ft 507 kts 128°
2026-04-21 07:59 -31.56980 143.98202 37228 ft 507 kts 128°
2026-04-21 07:59 -31.60433 144.05409 37225 ft 507 kts 128°
2026-04-21 08:00 -31.63882 144.12621 37226 ft 506 kts 128°
2026-04-21 08:00 -31.67302 144.19788 37228 ft 506 kts 128°
2026-04-21 08:01 -31.70742 144.27010 37234 ft 506 kts 128°
2026-04-21 08:02 -31.75886 144.37838 37227 ft 506 kts 128°
2026-04-21 08:02 -31.79316 144.45073 37233 ft 506 kts 128°
2026-04-21 08:03 -31.82736 144.52301 37237 ft 506 kts 128°
2026-04-21 08:03 -31.86160 144.59552 37240 ft 506 kts 128°
2026-04-21 08:04 -31.89575 144.66798 37235 ft 506 kts 128°
2026-04-21 08:04 -31.92987 144.74053 37240 ft 506 kts 128°
2026-04-21 08:05 -31.96372 144.81263 37246 ft 506 kts 128°
2026-04-21 08:05 -31.99796 144.88571 37238 ft 506 kts 128°
2026-04-21 08:06 -32.02617 144.94604 37244 ft 506 kts 128°
2026-04-21 08:06 -32.06008 145.01867 37230 ft 506 kts 128°
2026-04-21 08:07 -32.09943 145.10316 37239 ft 505 kts 128°
2026-04-21 08:07 -32.12751 145.16354 37239 ft 505 kts 128°
2026-04-21 08:08 -32.16123 145.23620 37241 ft 504 kts 128°
2026-04-21 08:08 -32.19487 145.30883 37245 ft 504 kts 128°
2026-04-21 08:09 -32.22843 145.38142 37252 ft 503 kts 128°
2026-04-21 08:09 -32.26191 145.45400 37258 ft 502 kts 128°
2026-04-21 08:10 -32.29528 145.52647 37253 ft 502 kts 127°
2026-04-21 08:10 -32.32863 145.59904 37253 ft 501 kts 127°
2026-04-21 08:11 -32.36185 145.67148 37255 ft 500 kts 127°
2026-04-21 08:11 -32.39494 145.74379 37260 ft 499 kts 127°
2026-04-21 08:12 -32.42799 145.81612 37264 ft 499 kts 127°
2026-04-21 08:12 -32.46068 145.88783 37266 ft 498 kts 127°
2026-04-21 08:13 -32.49356 145.96009 37265 ft 498 kts 127°
2026-04-21 08:13 -32.52634 146.03226 37268 ft 497 kts 126°
2026-04-21 08:14 -32.55904 146.10442 37269 ft 497 kts 126°
2026-04-21 08:14 -32.59172 146.17666 37268 ft 497 kts 126°
2026-04-21 08:15 -32.62432 146.24889 37272 ft 496 kts 126°
2026-04-21 08:15 -32.65684 146.32107 37273 ft 496 kts 126°
2026-04-21 08:16 -32.68934 146.39335 37278 ft 496 kts 126°
2026-04-21 08:16 -32.72157 146.46518 37276 ft 496 kts 125°
2026-04-21 08:17 -32.75399 146.53757 37280 ft 496 kts 125°
2026-04-21 08:17 -32.78631 146.60989 37281 ft 496 kts 125°
2026-04-21 08:18 -32.81861 146.68232 37278 ft 495 kts 125°
2026-04-21 08:18 -32.85080 146.75464 37281 ft 495 kts 124°
2026-04-21 08:19 -32.88294 146.82701 37281 ft 494 kts 124°
2026-04-21 08:19 -32.91499 146.89930 37283 ft 493 kts 124°
2026-04-21 08:20 -32.94693 146.97151 37293 ft 493 kts 124°
2026-04-21 08:20 -32.97881 147.04371 37293 ft 492 kts 124°
2026-04-21 08:21 -33.01062 147.11589 37280 ft 492 kts 124°
2026-04-21 08:21 -33.04233 147.18801 37286 ft 491 kts 124°
2026-04-21 08:22 -33.07401 147.26018 37279 ft 491 kts 123°
2026-04-21 08:22 -33.10541 147.33190 37284 ft 491 kts 123°
2026-04-21 08:23 -33.13696 147.40407 37290 ft 490 kts 123°
2026-04-21 08:23 -33.16847 147.47632 37275 ft 490 kts 123°
2026-04-21 08:24 -33.19990 147.54853 37288 ft 490 kts 123°
2026-04-21 08:24 -33.23108 147.62031 37284 ft 489 kts 123°
2026-04-21 08:25 -33.26234 147.69242 37288 ft 489 kts 123°
2026-04-21 08:25 -33.29358 147.76464 37287 ft 489 kts 123°
2026-04-21 08:26 -33.32476 147.83685 37279 ft 488 kts 123°
2026-04-21 08:26 -33.35674 147.90836 37289 ft 484 kts 128°
2026-04-21 08:27 -33.39675 147.97214 37292 ft 475 kts 138°
2026-04-21 08:27 -33.44172 148.02993 37296 ft 474 kts 139°
2026-04-21 08:28 -33.48685 148.08752 37303 ft 474 kts 139°
2026-04-21 08:28 -33.53171 148.14541 37297 ft 474 kts 138°
2026-04-21 08:29 -33.57645 148.20361 37299 ft 474 kts 138°
2026-04-21 08:29 -33.62086 148.26156 37296 ft 474 kts 138°
2026-04-21 08:30 -33.66548 148.31985 37305 ft 474 kts 138°
2026-04-21 08:30 -33.71015 148.37828 37307 ft 474 kts 138°
2026-04-21 08:31 -33.75472 148.43669 37299 ft 474 kts 137°
2026-04-21 08:31 -33.79928 148.49517 37303 ft 474 kts 137°
2026-04-21 08:32 -33.84380 148.55370 37310 ft 474 kts 137°
2026-04-21 08:32 -33.88836 148.61238 37314 ft 474 kts 137°
2026-04-21 08:33 -33.93280 148.67100 37317 ft 473 kts 137°
2026-04-21 08:33 -33.97692 148.72929 37320 ft 473 kts 137°
2026-04-21 08:34 -34.02124 148.78794 37327 ft 473 kts 137°
2026-04-21 08:34 -34.06552 148.84665 37332 ft 473 kts 137°
2026-04-21 08:35 -34.10977 148.90541 37331 ft 473 kts 137°
2026-04-21 08:35 -34.15399 148.96424 37341 ft 472 kts 137°
2026-04-21 08:36 -34.19786 149.02268 37333 ft 472 kts 137°
2026-04-21 08:36 -34.24191 149.08147 37348 ft 471 kts 137°
2026-04-21 08:37 -34.28606 149.14046 36719 ft 481 kts 137°
2026-04-21 08:37 -34.30848 149.17045 36035 ft 480 kts 136°
2026-04-21 08:37 -34.33090 149.20050 35208 ft 480 kts 136°
2026-04-21 08:37 -34.35323 149.23048 34374 ft 480 kts 136°
2026-04-21 08:38 -34.37542 149.26030 33362 ft 467 kts 136°
2026-04-21 08:38 -34.39705 149.28951 32580 ft 465 kts 135°
2026-04-21 08:38 -34.41585 149.32137 31971 ft 467 kts 124°
2026-04-21 08:38 -34.42980 149.35687 31398 ft 469 kts 115°
2026-04-21 08:39 -34.43939 149.39468 30843 ft 471 kts 105°
2026-04-21 08:39 -34.44442 149.43333 30269 ft 469 kts 102°
2026-04-21 08:39 -34.44866 149.47236 29626 ft 465 kts 101°
2026-04-21 08:39 -34.45279 149.51116 29031 ft 461 kts 102°
2026-04-21 08:40 -34.45699 149.54955 28451 ft 457 kts 102°
2026-04-21 08:40 -34.46132 149.58748 27875 ft 452 kts 102°
2026-04-21 08:40 -34.46573 149.62507 27316 ft 448 kts 102°
2026-04-21 08:40 -34.47015 149.66229 26767 ft 445 kts 102°
2026-04-21 08:41 -34.47455 149.69924 26206 ft 441 kts 102°
2026-04-21 08:41 -34.47890 149.73589 25670 ft 438 kts 102°
2026-04-21 08:41 -34.48320 149.77235 25122 ft 435 kts 102°
2026-04-21 08:41 -34.48747 149.80855 24585 ft 433 kts 102°
2026-04-21 08:42 -34.49170 149.84456 24033 ft 431 kts 101°
2026-04-21 08:42 -34.49587 149.88043 23413 ft 427 kts 101°
2026-04-21 08:42 -34.49684 149.91640 22815 ft 428 kts 88°
2026-04-21 08:42 -34.49135 149.95186 22295 ft 429 kts 76°
2026-04-21 08:43 -34.48040 149.98532 21767 ft 427 kts 65°
2026-04-21 08:43 -34.46829 150.01258 21347 ft 423 kts 64°
2026-04-21 08:43 -34.45405 150.04369 20837 ft 421 kts 63°
2026-04-21 08:43 -34.44005 150.07423 20339 ft 418 kts 63°
2026-04-21 08:44 -34.42607 150.10499 19837 ft 416 kts 64°
2026-04-21 08:44 -34.41232 150.13557 19338 ft 413 kts 64°
2026-04-21 08:44 -34.39866 150.16613 18835 ft 411 kts 64°
2026-04-21 08:44 -34.38513 150.19651 18285 ft 410 kts 64°
2026-04-21 08:45 -34.37165 150.22682 17733 ft 407 kts 64°
2026-04-21 08:45 -34.35831 150.25680 17221 ft 403 kts 64°
2026-04-21 08:45 -34.34511 150.28640 16973 ft 393 kts 64°
2026-04-21 08:45 -34.33236 150.31494 16873 ft 379 kts 64°
2026-04-21 08:46 -34.32003 150.34256 16785 ft 366 kts 64°
2026-04-21 08:46 -34.30814 150.36918 16697 ft 353 kts 64°
2026-04-21 08:46 -34.29666 150.39486 16578 ft 342 kts 64°
2026-04-21 08:46 -34.28548 150.41984 16428 ft 333 kts 64°
2026-04-21 08:47 -34.27457 150.44422 16176 ft 327 kts 64°
2026-04-21 08:47 -34.26377 150.46836 15832 ft 325 kts 64°
2026-04-21 08:47 -34.25318 150.49205 15480 ft 324 kts 64°
2026-04-21 08:47 -34.24246 150.51599 15139 ft 322 kts 64°
2026-04-21 08:48 -34.23182 150.53976 14814 ft 320 kts 64°
2026-04-21 08:48 -34.22125 150.56333 14495 ft 318 kts 64°
2026-04-21 08:48 -34.21075 150.58676 14173 ft 316 kts 64°
2026-04-21 08:48 -34.20030 150.61003 13845 ft 314 kts 64°
2026-04-21 08:49 -34.18991 150.63314 13490 ft 312 kts 64°
2026-04-21 08:49 -34.17960 150.65606 13151 ft 310 kts 64°
2026-04-21 08:49 -34.16933 150.67888 12815 ft 308 kts 64°
2026-04-21 08:49 -34.15913 150.70155 12522 ft 305 kts 64°
2026-04-21 08:50 -34.14911 150.72380 12338 ft 298 kts 64°
2026-04-21 08:50 -34.13933 150.74553 12114 ft 292 kts 64°
2026-04-21 08:50 -34.12979 150.76672 11843 ft 289 kts 64°
2026-04-21 08:50 -34.12020 150.78800 11526 ft 288 kts 64°
2026-04-21 08:51 -34.11066 150.80914 11219 ft 286 kts 64°
2026-04-21 08:51 -34.10115 150.83018 10925 ft 285 kts 64°
2026-04-21 08:51 -34.09172 150.85111 10632 ft 283 kts 64°
2026-04-21 08:51 -34.08237 150.87190 10346 ft 281 kts 64°
2026-04-21 08:52 -34.07307 150.89256 10041 ft 279 kts 64°
2026-04-21 08:52 -34.06392 150.91287 9923 ft 269 kts 64°
2026-04-21 08:52 -34.05558 150.93137 9856 ft 263 kts 64°
2026-04-21 08:52 -34.04663 150.95127 9506 ft 276 kts 64°
2026-04-21 08:53 -34.03740 150.97177 9092 ft 280 kts 64°
2026-04-21 08:53 -34.02808 150.99239 8702 ft 281 kts 64°
2026-04-21 08:53 -34.01870 151.01313 8333 ft 281 kts 64°
2026-04-21 08:53 -34.00671 151.03154 7922 ft 284 kts 40°
2026-04-21 08:54 -33.98895 151.04180 7555 ft 287 kts 12°
2026-04-21 08:54 -33.96913 151.04160 7193 ft 286 kts 347°
2026-04-21 08:54 -33.95009 151.03513 6856 ft 281 kts 341°
2026-04-21 08:54 -33.93198 151.02778 6439 ft 267 kts 340°
2026-04-21 08:55 -33.92051 151.02300 6158 ft 259 kts 340°
2026-04-21 08:55 -33.89857 151.01381 5620 ft 246 kts 340°
2026-04-21 08:55 -33.88271 151.00715 5212 ft 237 kts 340°
2026-04-21 08:55 -33.86741 151.00072 4802 ft 230 kts 340°
2026-04-21 08:56 -33.85243 150.99441 4394 ft 227 kts 340°
2026-04-21 08:56 -33.84234 150.99008 4162 ft 230 kts 340°
2026-04-21 08:56 -33.82725 150.98353 4048 ft 229 kts 340°
2026-04-21 08:56 -33.81226 150.97698 4009 ft 229 kts 340°
2026-04-21 08:57 -33.79725 150.97042 4002 ft 230 kts 340°
2026-04-21 08:57 -33.77731 150.96164 4053 ft 232 kts 340°
2026-04-21 08:57 -33.76202 150.95490 4018 ft 235 kts 339°
2026-04-21 08:57 -33.75173 150.95035 4025 ft 231 kts 339°
2026-04-21 08:58 -33.73633 150.94621 3979 ft 227 kts
2026-04-21 08:58 -33.72194 150.95201 4008 ft 221 kts 40°
2026-04-21 08:58 -33.71277 150.96613 4002 ft 212 kts 73°
2026-04-21 08:58 -33.70912 150.98310 4004 ft 210 kts 89°
2026-04-21 08:59 -33.70807 151.00059 4014 ft 210 kts 92°
2026-04-21 08:59 -33.70725 151.01789 3998 ft 203 kts 92°
2026-04-21 08:59 -33.70642 151.03428 3975 ft 189 kts 93°
2026-04-21 08:59 -33.70661 151.04971 3985 ft 183 kts 100°
2026-04-21 09:00 -33.70829 151.06457 4019 ft 179 kts 105°
2026-04-21 09:00 -33.71055 151.07948 3998 ft 183 kts 106°
2026-04-21 09:00 -33.71281 151.09489 4010 ft 186 kts 106°
2026-04-21 09:00 -33.71693 151.10896 3988 ft 174 kts 127°
2026-04-21 09:01 -33.72445 151.12013 3998 ft 172 kts 135°
2026-04-21 09:01 -33.73327 151.12960 3859 ft 171 kts 157°
2026-04-21 09:01 -33.74451 151.13388 3776 ft 172 kts 163°
2026-04-21 09:01 -33.75599 151.13763 3676 ft 169 kts 165°
2026-04-21 09:02 -33.76741 151.14089 3599 ft 168 kts 166°
2026-04-21 09:02 -33.77864 151.14391 3385 ft 161 kts 167°
2026-04-21 09:02 -33.78919 151.14666 3198 ft 151 kts 167°
2026-04-21 09:03 -33.80831 151.15163 2870 ft 143 kts 167°
2026-04-21 09:03 -33.81789 151.15412 2716 ft 140 kts 167°
2026-04-21 09:03 -33.82725 151.15654 2531 ft 136 kts 167°
2026-04-21 09:03 -33.83665 151.15898 2347 ft 140 kts 167°
2026-04-21 09:04 -33.84608 151.16143 2165 ft 137 kts 167°
2026-04-21 09:04 -33.85532 151.16383 1974 ft 135 kts 168°
2026-04-21 09:04 -33.86458 151.16623 1795 ft 136 kts 167°
2026-04-21 09:04 -33.87380 151.16862 1634 ft 137 kts 167°
2026-04-21 09:05 -33.88312 151.17105 1436 ft 135 kts 168°
2026-04-21 09:05 -33.89236 151.17344 1268 ft 137 kts 167°
2026-04-21 09:05 -33.90189 151.17593 1077 ft 142 kts 168°
2026-04-21 09:05 -33.91149 151.17842 849 ft 139 kts 169°
2026-04-21 09:06 -33.92101 151.18089 696 ft 141 kts 168°
2026-04-21 09:06 -33.93050 151.18337 460 ft 139 kts 169°
2026-04-21 09:06 -33.93981 151.18578 256 ft 136 kts 168°
2026-04-21 09:06 -33.94895 151.18826 111 ft 132 kts 168°
2026-04-21 09:07 -33.95799 151.19045 32 ft 126 kts 168°
2026-04-21 09:07 -33.96486 151.19224 30 ft 74 kts 168°
2026-04-21 09:07 -33.96812 151.19296 28 ft 21 kts 179°
2026-04-21 09:07 -33.96890 151.19292 29 ft 10 kts 184°
2026-04-21 09:08 -33.96960 151.19281 31 ft 10 kts 190°
2026-04-21 09:08 -33.97024 151.19264 33 ft 10 kts 193°
2026-04-21 09:08 -33.97040 151.19260 33 ft 0 kts 193°
2026-04-21 09:10 -33.97043 151.19259 33 ft 2 kts 193°
2026-04-21 09:11 -33.97093 151.19244 34 ft 11 kts 199°
2026-04-21 09:11 -33.97117 151.19166 35 ft 11 kts 292°
2026-04-21 09:11 -33.97048 151.19124 35 ft 12 kts 346°
2026-04-21 09:11 -33.96966 151.19103 35 ft 12 kts 348°
2026-04-21 09:12 -33.96892 151.19084 35 ft 12 kts 348°
2026-04-21 09:13 -33.96841 151.19071 35 ft 13 kts 348°
2026-04-21 09:13 -33.96752 151.19071 35 ft 13 kts 11°
2026-04-21 09:13 -33.96659 151.19068 35 ft 14 kts 348°
2026-04-21 09:13 -33.96564 151.19043 35 ft 14 kts 347°
2026-04-21 09:14 -33.96470 151.19019 35 ft 14 kts 348°
2026-04-21 09:14 -33.96375 151.18994 35 ft 14 kts 348°
2026-04-21 09:14 -33.96280 151.18969 35 ft 14 kts 347°
2026-04-21 09:14 -33.96185 151.18945 35 ft 14 kts 348°
2026-04-21 09:15 -33.96166 151.18940 35 ft 14 kts 348°
2026-04-21 09:15 -33.96086 151.18919 35 ft 14 kts 347°
2026-04-21 09:16 -33.95990 151.18895 35 ft 14 kts 348°
2026-04-21 09:16 -33.95893 151.18869 35 ft 15 kts 348°
2026-04-21 09:16 -33.95793 151.18844 35 ft 15 kts 348°
2026-04-21 09:16 -33.95694 151.18817 35 ft 15 kts 347°
2026-04-21 09:17 -33.95594 151.18792 35 ft 15 kts 348°
2026-04-21 09:17 -33.95495 151.18766 34 ft 15 kts 347°
2026-04-21 09:17 -33.95395 151.18740 35 ft 15 kts 348°
2026-04-21 09:17 -33.95296 151.18711 35 ft 15 kts 340°
2026-04-21 09:18 -33.95210 151.18648 34 ft 15 kts 318°
2026-04-21 09:18 -33.95148 151.18579 35 ft 10 kts 317°
2026-04-21 09:18 -33.95106 151.18518 35 ft 10 kts 292°
2026-04-21 09:18 -33.95113 151.18437 35 ft 10 kts 258°
2026-04-21 09:19 -33.95128 151.18357 35 ft 10 kts 257°
2026-04-21 09:19 -33.95143 151.18276 35 ft 10 kts 258°
2026-04-21 09:19 -33.95157 151.18195 35 ft 10 kts 257°
2026-04-21 09:19 -33.95172 151.18112 35 ft 10 kts 258°
2026-04-21 09:20 -33.95190 151.18014 35 ft 18 kts 257°
2026-04-21 09:20 -33.95221 151.17840 34 ft 23 kts 258°
2026-04-21 09:20 -33.95228 151.17804 34 ft 23 kts 257°
2026-04-21 09:20 -33.95247 151.17699 34 ft 0 kts 258°
2026-04-21 09:22 -33.95250 151.17681 34 ft 5 kts 258°
2026-04-21 09:22 -33.95263 151.17609 34 ft 11 kts 261°
2026-04-21 09:23 -33.95212 151.17547 34 ft 12 kts 344°
2026-04-21 09:23 -33.95129 151.17525 34 ft 12 kts 348°
2026-04-21 09:23 -33.95044 151.17503 34 ft 12 kts 348°
2026-04-21 09:23 -33.94959 151.17481 34 ft 12 kts 348°
2026-04-21 09:24 -33.94874 151.17459 34 ft 13 kts 348°
2026-04-21 09:24 -33.94785 151.17436 35 ft 13 kts 347°
2026-04-21 09:24 -33.94696 151.17413 35 ft 13 kts 348°
2026-04-21 09:24 -33.94608 151.17390 35 ft 13 kts 348°
2026-04-21 09:25 -33.94506 151.17364 35 ft 19 kts 348°
2026-04-21 09:25 -33.94360 151.17326 35 ft 22 kts 348°
2026-04-21 09:25 -33.94209 151.17287 34 ft 22 kts 348°
2026-04-21 09:25 -33.94091 151.17256 34 ft 9 kts 348°
2026-04-21 09:26 -33.94029 151.17240 34 ft 9 kts 348°
2026-04-21 09:26 -33.93982 151.17196 34 ft 10 kts 275°
2026-04-21 09:26 -33.93996 151.17114 34 ft 10 kts 254°
2026-04-21 09:26 -33.94016 151.17033 35 ft 10 kts 254°
2026-04-21 09:27 -33.94035 151.16952 35 ft 10 kts 254°
2026-04-21 09:27 -33.94054 151.16872 35 ft 10 kts 254°
2026-04-21 09:27 -33.94073 151.16791 35 ft 10 kts 254°
2026-04-21 09:27 -33.94092 151.16710 35 ft 10 kts 254°
2026-04-21 09:28 -33.94111 151.16628 35 ft 10 kts 254°
2026-04-21 09:28 -33.94107 151.16547 34 ft 10 kts 311°
2026-04-21 09:28 -33.94088 151.16543 35 ft 10 kts
2026-04-21 09:28 -33.94027 151.16539 35 ft 8 kts 347°
2026-04-21 09:29 -33.94026 151.16539 35 ft 0 kts 347°